Flag for Canada Weather past 2 weeks in Fort Frances, Ontario, Canada

Now
61 °F

Fog.


Feels Like: 61 °F
Forecast: 58 / 79 °F
Wind: 6 mph from Southwest

Location: Dryden Airport

Current Time: Aug 29, 2015 at 5:20:04 AM

Latest Report: Aug 29, 2015 at 5:00 AM


Visibility: 1 mi

Pressure: 29.92 "Hg

Humidity: 94%

Dew point: 59 °F

Location of Fort FrancesLocation

Historic Weather in Fort Frances — Graph

°F

Fort Frances temperature yesterday

Maximum temperature yesterday: 73 °F (at 6:00 PM)
Minimum temperature yesterday: 59 °F (at 3:00 AM)
Average temperature yesterday: 66 °F

Past Weeks' High & Low Weather Summary

 TemperatureHumidityPressure
High88 °F (Aug 15, 5:00 PM)100% (Aug 18, 2:57 AM)30.23 "Hg (Aug 18, 2:57 AM)
Low43 °F (Aug 26, 6:00 AM)31% (Aug 26, 4:00 PM)29.45 "Hg (Aug 22, 10:00 PM)
Average62 °F76%29.88 "Hg
* Reported Aug 14 4:00 AM — Aug 29 4:00 AM, Fort Frances, Weather by CustomWeather, © 2015

Note: Actual official high and low records may vary slightly from our data, if they occured in-between our weather recording intervals... More about our weather records

Advertising

Fort Frances weather history for previous 24 hours

 ConditionsComfort  
Time TempWeatherWind HumidityBarometerVisibility
4:00 AM
Sat, Aug 29
63 °FFog.7 mph94%29.92 "Hg2 mi
3:54 AM63 °FFog.8 mph94%29.92 "Hg2 mi
3:00 AM63 °FFog.8 mph94%29.90 "Hg3 mi
2:00 AM63 °FFog.10 mph100%29.91 "Hg3 mi
1:53 AM63 °FFog.8 mph100%29.91 "Hg3 mi
1:00 AM64 °FClear.7 mph94%29.90 "Hg9 mi
12:00 AM64 °FClear.7 mph94%29.88 "Hg9 mi
11:00 PM
Fri, Aug 28
64 °FClear.8 mph94%29.88 "Hg9 mi
10:00 PM66 °FPassing clouds.6 mph94%29.88 "Hg9 mi
9:00 PM68 °FPassing clouds.No wind88%29.87 "Hg9 mi
8:00 PM70 °FSunny.5 mph83%29.84 "Hg9 mi
7:00 PM72 °FPassing clouds.6 mph78%29.84 "Hg9 mi
6:00 PM73 °FSunny.9 mph74%29.86 "Hg9 mi
5:00 PM72 °FBroken clouds.9 mph78%29.86 "Hg9 mi
4:55 PM72 °FBroken clouds.10 mph78%29.86 "Hg9 mi
4:00 PM72 °FBroken clouds.13 mph83%29.85 "Hg9 mi
3:00 PM70 °FOvercast.10 mph88%29.86 "Hg9 mi
2:00 PM70 °FOvercast.10 mph88%29.86 "Hg9 mi
1:00 PM68 °FLow clouds.9 mph88%29.87 "Hg9 mi
12:00 PM66 °FLow clouds.8 mph94%29.88 "Hg9 mi
11:52 AM66 °FLow clouds.7 mph94%29.88 "Hg8 mi
11:00 AM64 °FFog.3 mph94%29.89 "Hg4 mi
10:00 AM64 °FOvercast.8 mph94%29.87 "Hg8 mi
9:00 AM63 °FLight rain. More clouds than sun.8 mph94%29.88 "Hg8 mi
8:57 AM63 °FLight rain. More clouds than sun.7 mph94%29.88 "Hg9 mi
8:00 AM63 °FMostly cloudy.8 mph94%29.90 "Hg9 mi
7:00 AM61 °FOvercast.7 mph94%29.90 "Hg9 mi
6:00 AM61 °FPassing clouds.6 mph94%29.90 "Hg9 mi
5:00 AM61 °FPassing clouds.8 mph94%29.89 "Hg9 mi
Weather by CustomWeather, © 2015

See weather overviewHow to use our weather pages